Wetterdaten: Samstag, 24.10.2015
Datum Zeit Auen-Temp. Temp gefhlt Luftfeuchte Luftdruck Regen Wind Richtung Richtung Taupunkt Windben
24.10.2015 00:00 7,4 C 7,4 C 89 % 1020,6 hPa 0,0 mm 2,1 km/h (1 Bft) O-NO 67 5,7 C 3,9 km/h (1 Bft)
24.10.2015 00:05 7,4 C 7,4 C 89 % 1020,6 hPa 0,0 mm 2,6 km/h (1 Bft) O-NO 67 5,7 C 5,7 km/h (1 Bft)
24.10.2015 00:10 7,4 C 7,4 C 89 % 1020,7 hPa 0,0 mm 2,6 km/h (1 Bft) O-NO 67 5,7 C 5,7 km/h (1 Bft)
24.10.2015 00:15 7,3 C 7,2 C 89 % 1020,7 hPa 0,0 mm 0,0 km/h (0 Bft) SW 225 5,6 C 0,0 km/h (0 Bft)
24.10.2015 00:20 7,2 C 7,3 C 86 % 1020,7 hPa 0,0 mm 0,0 km/h (0 Bft) S 180 5,0 C 3,4 km/h (1 Bft)
24.10.2015 00:25 7,2 C 7,2 C 86 % 1020,7 hPa 0,0 mm 0,3 km/h (0 Bft) W-SW 247 5,0 C 0,0 km/h (0 Bft)
24.10.2015 00:30 7,2 C 7,2 C 89 % 1020,4 hPa 0,0 mm 0,8 km/h (0 Bft) SO 135 5,5 C 3,4 km/h (1 Bft)
24.10.2015 00:35 7,1 C 7,1 C 86 % 1020,4 hPa 0,0 mm 0,5 km/h (0 Bft) O-SO 112 4,9 C 0,0 km/h (0 Bft)
24.10.2015 00:40 7,1 C 7,1 C 86 % 1020,4 hPa 0,0 mm 0,3 km/h (0 Bft) NO 45 4,9 C 0,0 km/h (0 Bft)
24.10.2015 00:45 7,1 C 7,1 C 86 % 1020,4 hPa 0,0 mm 0,3 km/h (0 Bft) N-NW 337 4,9 C 3,4 km/h (1 Bft)
24.10.2015 00:50 7,1 C 7,1 C 86 % 1020,5 hPa 0,0 mm 0,8 km/h (0 Bft) SW 225 4,9 C 8,5 km/h (2 Bft)
24.10.2015 00:55 6,7 C 6,8 C 89 % 1020,5 hPa 0,0 mm 3,4 km/h (1 Bft) S-SW 202 5,0 C 3,1 km/h (1 Bft)
24.10.2015 01:00 6,6 C 6,6 C 89 % 1020,5 hPa 0,0 mm 3,9 km/h (1 Bft) S 180 4,9 C 9,1 km/h (2 Bft)
24.10.2015 01:05 6,5 C 6,5 C 89 % 1020,5 hPa 0,0 mm 1,0 km/h (0 Bft) S-SW 202 4,8 C 3,1 km/h (1 Bft)
24.10.2015 01:10 6,4 C 6,4 C 86 % 1020,2 hPa 0,0 mm 2,3 km/h (1 Bft) SW 225 4,2 C 8,3 km/h (2 Bft)
24.10.2015 01:15 6,3 C 6,2 C 88 % 1020,2 hPa 0,0 mm 6,5 km/h (2 Bft) SW 225 4,5 C 9,3 km/h (2 Bft)
24.10.2015 01:20 6,2 C 6,1 C 86 % 1020,2 hPa 0,0 mm 7,3 km/h (2 Bft) S-SW 202 4,0 C 11,1 km/h (2 Bft)
24.10.2015 01:25 6,1 C 6,1 C 86 % 1020,2 hPa 0,0 mm 5,7 km/h (1 Bft) S 180 3,9 C 3,9 km/h (1 Bft)
24.10.2015 01:30 6,1 C 6,1 C 88 % 1020,5 hPa 0,0 mm 4,1 km/h (1 Bft) S-SW 202 4,3 C 6,2 km/h (2 Bft)
24.10.2015 01:35 6,1 C 6,1 C 88 % 1020,5 hPa 0,0 mm 5,2 km/h (1 Bft) S-SW 202 4,3 C 10,4 km/h (2 Bft)
24.10.2015 01:40 6,1 C 5,9 C 89 % 1020,5 hPa 0,0 mm 6,7 km/h (2 Bft) SW 225 4,4 C 8,0 km/h (2 Bft)
24.10.2015 01:45 6,0 C 5,8 C 89 % 1020,5 hPa 0,0 mm 7,5 km/h (2 Bft) S-SW 202 4,3 C 11,9 km/h (2 Bft)
24.10.2015 01:50 5,9 C 5,7 C 87 % 1020,6 hPa 0,0 mm 8,0 km/h (2 Bft) SW 225 3,9 C 14,0 km/h (3 Bft)
24.10.2015 01:55 5,9 C 5,6 C 87 % 1020,6 hPa 0,0 mm 8,8 km/h (2 Bft) NW 315 3,9 C 9,6 km/h (2 Bft)
24.10.2015 02:00 5,9 C 5,5 C 89 % 1020,6 hPa 0,0 mm 9,6 km/h (2 Bft) SW 225 4,2 C 14,8 km/h (3 Bft)
24.10.2015 02:05 5,9 C 5,5 C 89 % 1020,6 hPa 0,0 mm 9,1 km/h (2 Bft) S 180 4,2 C 8,5 km/h (2 Bft)
24.10.2015 02:10 6,0 C 5,8 C 86 % 1020,6 hPa 0,0 mm 7,5 km/h (2 Bft) S-SW 202 3,8 C 16,1 km/h (3 Bft)
24.10.2015 02:15 6,1 C 5,9 C 89 % 1020,6 hPa 0,0 mm 6,5 km/h (2 Bft) W-SW 247 4,4 C 5,2 km/h (1 Bft)
24.10.2015 02:20 6,1 C 6,0 C 86 % 1020,6 hPa 0,0 mm 6,2 km/h (2 Bft) S 180 3,9 C 7,3 km/h (2 Bft)
24.10.2015 02:24 6,1 C 6,0 C 86 % 1020,6 hPa 0,0 mm 6,2 km/h (2 Bft) S 180 3,9 C 7,3 km/h (2 Bft)
24.10.2015 02:25 6,2 C 6,2 C 87 % 1020,6 hPa 0,0 mm 5,7 km/h (1 Bft) SW 225 4,2 C 7,5 km/h (2 Bft)
24.10.2015 02:30 6,3 C 6,3 C 87 % 1020,8 hPa 0,0 mm 6,0 km/h (2 Bft) W-SW 247 4,3 C 6,5 km/h (2 Bft)
24.10.2015 02:35 6,4 C 6,4 C 87 % 1020,8 hPa 0,0 mm 4,9 km/h (1 Bft) S 180 4,4 C 4,1 km/h (1 Bft)
24.10.2015 02:40 6,4 C 6,4 C 87 % 1020,8 hPa 0,0 mm 4,1 km/h (1 Bft) S-SO 157 4,4 C 5,2 km/h (1 Bft)
24.10.2015 02:45 6,5 C 6,6 C 87 % 1020,8 hPa 0,0 mm 4,9 km/h (1 Bft) W-SW 247 4,5 C 8,5 km/h (2 Bft)
24.10.2015 02:50 6,5 C 6,5 C 90 % 1020,6 hPa 0,0 mm 5,7 km/h (1 Bft) SW 225 5,0 C 5,7 km/h (1 Bft)
24.10.2015 02:55 6,4 C 6,2 C 90 % 1020,6 hPa 0,0 mm 7,0 km/h (2 Bft) SW 225 4,9 C 11,4 km/h (2 Bft)
24.10.2015 03:00 6,3 C 6,2 C 87 % 1020,6 hPa 0,0 mm 6,7 km/h (2 Bft) S 180 4,3 C 6,2 km/h (2 Bft)
24.10.2015 03:05 6,2 C 6,0 C 90 % 1020,6 hPa 0,0 mm 7,3 km/h (2 Bft) W 270 4,7 C 12,7 km/h (3 Bft)
24.10.2015 03:10 6,1 C 6,0 C 89 % 1020,4 hPa 0,0 mm 6,5 km/h (2 Bft) W-SW 247 4,4 C 2,6 km/h (1 Bft)
24.10.2015 03:15 6,0 C 6,0 C 89 % 1020,4 hPa 0,0 mm 3,1 km/h (1 Bft) SW 225 4,3 C 0,0 km/h (0 Bft)
24.10.2015 03:20 5,9 C 5,9 C 90 % 1020,4 hPa 0,0 mm 1,8 km/h (1 Bft) SW 225 4,4 C 0,0 km/h (0 Bft)
24.10.2015 03:25 5,8 C 5,8 C 89 % 1020,4 hPa 0,0 mm 0,5 km/h (0 Bft) S 180 4,1 C 0,0 km/h (0 Bft)
24.10.2015 03:30 5,6 C 5,6 C 89 % 1020,4 hPa 0,0 mm 0,5 km/h (0 Bft) SW 225 3,9 C 3,4 km/h (1 Bft)
24.10.2015 03:35 5,3 C 5,2 C 89 % 1020,4 hPa 0,0 mm 1,3 km/h (1 Bft) W-SW 247 3,6 C 2,8 km/h (1 Bft)
24.10.2015 03:40 4,8 C 4,7 C 89 % 1020,4 hPa 0,0 mm 3,1 km/h (1 Bft) S-SW 202 3,1 C 2,6 km/h (1 Bft)
24.10.2015 03:45 4,4 C 4,3 C 89 % 1020,4 hPa 0,0 mm 3,4 km/h (1 Bft) SW 225 2,7 C 6,7 km/h (2 Bft)
24.10.2015 03:50 4,3 C 4,1 C 89 % 1020,3 hPa 0,0 mm 2,8 km/h (1 Bft) SW 225 2,7 C 3,6 km/h (1 Bft)
24.10.2015 03:55 4,2 C 4,0 C 89 % 1020,3 hPa 0,0 mm 3,1 km/h (1 Bft) W 270 2,6 C 0,0 km/h (0 Bft)
24.10.2015 04:00 4,1 C 3,9 C 89 % 1020,3 hPa 0,0 mm 2,1 km/h (1 Bft) W 270 2,5 C 0,0 km/h (0 Bft)
24.10.2015 04:05 3,6 C 3,5 C 89 % 1020,3 hPa 0,0 mm 0,8 km/h (0 Bft) W 270 2,0 C 0,0 km/h (0 Bft)
24.10.2015 04:10 3,5 C 3,3 C 89 % 1020,1 hPa 0,0 mm 0,5 km/h (0 Bft) S 180 1,9 C 0,0 km/h (0 Bft)
24.10.2015 04:15 3,0 C 2,8 C 89 % 1020,1 hPa 0,0 mm 0,0 km/h (0 Bft) S 180 1,4 C 0,0 km/h (0 Bft)
24.10.2015 04:20 2,9 C 2,6 C 89 % 1020,1 hPa 0,0 mm 0,0 km/h (0 Bft) S-SO 157 1,3 C 0,0 km/h (0 Bft)
24.10.2015 04:25 2,8 C 2,4 C 89 % 1020,1 hPa 0,0 mm 0,0 km/h (0 Bft) S 180 1,2 C 0,0 km/h (0 Bft)
24.10.2015 04:30 2,4 C 2,0 C 89 % 1019,9 hPa 0,0 mm 0,0 km/h (0 Bft) S 180 0,8 C 0,0 km/h (0 Bft)
24.10.2015 04:35 2,5 C 2,0 C 90 % 1019,9 hPa 0,0 mm 0,0 km/h (0 Bft) S 180 1,0 C 0,0 km/h (0 Bft)
24.10.2015 04:40 2,4 C 1,9 C 90 % 1019,9 hPa 0,0 mm 0,0 km/h (0 Bft) S 180 0,9 C 0,0 km/h (0 Bft)
24.10.2015 04:45 2,3 C 1,8 C 91 % 1019,9 hPa 0,0 mm 0,0 km/h (0 Bft) S-SO 157 1,0 C 0,0 km/h (0 Bft)
24.10.2015 04:50 2,1 C 1,7 C 90 % 1019,6 hPa 0,0 mm 0,0 km/h (0 Bft) S-SO 157 0,6 C 0,0 km/h (0 Bft)
24.10.2015 04:55 2,2 C 1,7 C 91 % 1019,6 hPa 0,0 mm 0,0 km/h (0 Bft) S-SO 157 0,9 C 0,0 km/h (0 Bft)
24.10.2015 05:00 1,9 C 1,5 C 91 % 1019,6 hPa 0,0 mm 0,0 km/h (0 Bft) S-SO 157 0,6 C 0,0 km/h (0 Bft)
24.10.2015 05:05 2,3 C 1,8 C 91 % 1019,6 hPa 0,0 mm 0,0 km/h (0 Bft) O 90 1,0 C 0,0 km/h (0 Bft)
24.10.2015 05:10 1,9 C 1,6 C 92 % 1019,4 hPa 0,0 mm 0,0 km/h (0 Bft) NW 315 0,7 C 0,0 km/h (0 Bft)
24.10.2015 05:15 1,8 C 1,4 C 92 % 1019,4 hPa 0,0 mm 0,0 km/h (0 Bft) NW 315 0,6 C 0,0 km/h (0 Bft)
24.10.2015 05:20 1,7 C 1,3 C 92 % 1019,4 hPa 0,0 mm 0,0 km/h (0 Bft) NW 315 0,5 C 0,0 km/h (0 Bft)
24.10.2015 05:25 1,9 C 1,4 C 92 % 1019,4 hPa 0,0 mm 0,0 km/h (0 Bft) NW 315 0,7 C 0,0 km/h (0 Bft)
24.10.2015 05:30 1,9 C 1,3 C 92 % 1019,2 hPa 0,0 mm 0,0 km/h (0 Bft) NW 315 0,7 C 0,0 km/h (0 Bft)
24.10.2015 05:35 1,7 C 1,2 C 92 % 1019,2 hPa 0,0 mm 0,0 km/h (0 Bft) N-NW 337 0,5 C 0,0 km/h (0 Bft)
24.10.2015 05:40 1,2 C 0,9 C 92 % 1019,2 hPa 0,0 mm 0,0 km/h (0 Bft) N-NW 337 0,0 C 0,0 km/h (0 Bft)
24.10.2015 05:45 1,4 C 0,9 C 92 % 1019,2 hPa 0,0 mm 0,0 km/h (0 Bft) N-NW 337 0,2 C 0,0 km/h (0 Bft)
24.10.2015 05:50 1,6 C 1,1 C 92 % 1019,2 hPa 0,0 mm 0,0 km/h (0 Bft) NO 45 0,4 C 0,0 km/h (0 Bft)
24.10.2015 05:55 1,2 C 0,8 C 92 % 1019,2 hPa 0,0 mm 0,0 km/h (0 Bft) NO 45 0,0 C 0,0 km/h (0 Bft)
24.10.2015 06:00 1,4 C 1,0 C 88 % 1019,2 hPa 0,0 mm 0,0 km/h (0 Bft) NW 315 -0,4 C 0,0 km/h (0 Bft)
24.10.2015 06:05 1,0 C 0,7 C 92 % 1019,2 hPa 0,0 mm 0,0 km/h (0 Bft) NW 315 -0,2 C 0,0 km/h (0 Bft)
24.10.2015 06:10 1,0 C 0,6 C 92 % 1019,1 hPa 0,0 mm 0,0 km/h (0 Bft) NW 315 -0,2 C 0,0 km/h (0 Bft)
24.10.2015 06:15 0,7 C 0,3 C 92 % 1019,1 hPa 0,0 mm 0,0 km/h (0 Bft) NW 315 -0,4 C 0,0 km/h (0 Bft)
24.10.2015 06:20 0,3 C 0,0 C 92 % 1019,1 hPa 0,0 mm 0,0 km/h (0 Bft) NW 315 -0,8 C 0,0 km/h (0 Bft)
24.10.2015 06:25 0,5 C 0,1 C 92 % 1019,1 hPa 0,0 mm 0,0 km/h (0 Bft) NW 315 -0,6 C 0,0 km/h (0 Bft)
24.10.2015 06:30 0,7 C 0,2 C 92 % 1019,4 hPa 0,0 mm 0,0 km/h (0 Bft) NO 45 -0,4 C 0,0 km/h (0 Bft)
24.10.2015 06:35 0,6 C 0,2 C 92 % 1019,4 hPa 0,0 mm 0,0 km/h (0 Bft) N-NO 22 -0,5 C 0,0 km/h (0 Bft)
24.10.2015 06:40 0,5 C 0,1 C 92 % 1019,4 hPa 0,0 mm 0,0 km/h (0 Bft) NW 315 -0,6 C 0,0 km/h (0 Bft)
24.10.2015 06:45 0,9 C 0,4 C 92 % 1019,4 hPa 0,0 mm 0,3 km/h (0 Bft) NO 45 -0,2 C 0,0 km/h (0 Bft)
24.10.2015 06:50 0,7 C 0,3 C 92 % 1019,4 hPa 0,0 mm 0,5 km/h (0 Bft) W-NW 292 -0,4 C 0,0 km/h (0 Bft)
24.10.2015 06:55 0,7 C 0,3 C 93 % 1019,4 hPa 0,0 mm 0,3 km/h (0 Bft) O-NO 67 -0,3 C 3,1 km/h (1 Bft)
24.10.2015 07:00 0,4 C 0,1 C 92 % 1019,4 hPa 0,0 mm 0,3 km/h (0 Bft) O-NO 67 -0,7 C 0,0 km/h (0 Bft)
24.10.2015 07:05 0,4 C 0,0 C 92 % 1019,4 hPa 0,0 mm 0,3 km/h (0 Bft) O-NO 67 -0,7 C 0,0 km/h (0 Bft)
24.10.2015 07:10 0,2 C -0,2 C 92 % 1019,6 hPa 0,0 mm 0,0 km/h (0 Bft) N-NO 22 -0,9 C 0,0 km/h (0 Bft)
24.10.2015 07:15 0,3 C -0,1 C 92 % 1019,6 hPa 0,0 mm 0,0 km/h (0 Bft) N-NO 22 -0,8 C 0,0 km/h (0 Bft)
24.10.2015 07:20 0,5 C 0,1 C 93 % 1019,6 hPa 0,0 mm 1,0 km/h (0 Bft) W-SW 247 -0,5 C 0,0 km/h (0 Bft)
24.10.2015 07:25 1,0 C 0,5 C 93 % 1019,6 hPa 0,0 mm 2,3 km/h (1 Bft) S 180 -0,0 C 0,0 km/h (0 Bft)
24.10.2015 07:30 0,9 C 0,5 C 93 % 1019,4 hPa 0,0 mm 1,8 km/h (1 Bft) S-SO 157 -0,1 C 0,0 km/h (0 Bft)
24.10.2015 07:35 0,4 C 0,1 C 93 % 1019,4 hPa 0,0 mm 0,5 km/h (0 Bft) S-SO 157 -0,6 C 0,0 km/h (0 Bft)
24.10.2015 07:40 0,3 C 0,0 C 93 % 1019,4 hPa 0,0 mm 0,3 km/h (0 Bft) SW 225 -0,7 C 3,1 km/h (1 Bft)
24.10.2015 07:45 0,4 C 0,1 C 89 % 1019,4 hPa 0,0 mm 0,8 km/h (0 Bft) SO 135 -1,2 C 0,0 km/h (0 Bft)
24.10.2015 07:50 0,2 C 0,0 C 93 % 1019,7 hPa 0,0 mm 0,8 km/h (0 Bft) S-SW 202 -0,8 C 0,0 km/h (0 Bft)
24.10.2015 07:55 0,0 C -0,2 C 93 % 1019,7 hPa 0,0 mm 0,8 km/h (0 Bft) W-SW 247 -1,0 C 0,0 km/h (0 Bft)
24.10.2015 08:00 -0,3 C -0,5 C 93 % 1019,7 hPa 0,0 mm 0,8 km/h (0 Bft) W-SW 247 -1,3 C 0,0 km/h (0 Bft)
24.10.2015 08:05 -0,1 C -0,4 C 93 % 1019,7 hPa 0,0 mm 0,3 km/h (0 Bft) SW 225 -1,1 C 0,0 km/h (0 Bft)
24.10.2015 08:10 -0,3 C -0,5 C 93 % 1020,0 hPa 0,0 mm 0,3 km/h (0 Bft) W-SW 247 -1,3 C 0,0 km/h (0 Bft)
24.10.2015 08:15 -0,5 C -0,8 C 93 % 1020,0 hPa 0,0 mm 0,0 km/h (0 Bft) SW 225 -1,5 C 0,0 km/h (0 Bft)
24.10.2015 08:20 -0,4 C -0,7 C 93 % 1020,0 hPa 0,0 mm 0,0 km/h (0 Bft) SW 225 -1,4 C 0,0 km/h (0 Bft)
24.10.2015 08:24 -0,3 C -0,5 C 88 % 1020,0 hPa 0,0 mm 0,3 km/h (0 Bft) NW 315 -2,0 C 5,7 km/h (1 Bft)
24.10.2015 08:25 -0,3 C -0,5 C 88 % 1020,0 hPa 0,0 mm 0,3 km/h (0 Bft) NW 315 -2,0 C 5,7 km/h (1 Bft)
24.10.2015 08:30 -0,3 C -0,5 C 93 % 1019,9 hPa 0,0 mm 0,5 km/h (0 Bft) SW 225 -1,3 C 0,0 km/h (0 Bft)
24.10.2015 08:35 0,0 C -0,3 C 93 % 1019,9 hPa 0,0 mm 0,5 km/h (0 Bft) S-SW 202 -1,0 C 0,0 km/h (0 Bft)
24.10.2015 08:40 -0,1 C -0,3 C 93 % 1019,9 hPa 0,0 mm 0,0 km/h (0 Bft) W 270 -1,1 C 0,0 km/h (0 Bft)
24.10.2015 08:45 0,1 C -0,1 C 93 % 1019,9 hPa 0,0 mm 0,0 km/h (0 Bft) W-SW 247 -0,9 C 0,0 km/h (0 Bft)
24.10.2015 08:50 0,0 C -0,2 C 93 % 1020,0 hPa 0,0 mm 0,0 km/h (0 Bft) W-SW 247 -1,0 C 0,0 km/h (0 Bft)
24.10.2015 08:55 0,3 C 0,2 C 93 % 1020,0 hPa 0,0 mm 0,0 km/h (0 Bft) W-SW 247 -0,7 C 0,0 km/h (0 Bft)
24.10.2015 09:01 0,5 C 0,4 C 94 % 1020,0 hPa 0,0 mm 0,0 km/h (0 Bft) W-SW 247 -0,4 C 0,0 km/h (0 Bft)
24.10.2015 09:05 1,1 C 1,0 C 89 % 1020,0 hPa 0,0 mm 0,8 km/h (0 Bft) SO 135 -0,5 C 0,0 km/h (0 Bft)
24.10.2015 09:10 1,1 C 1,1 C 89 % 1019,4 hPa 0,0 mm 1,0 km/h (0 Bft) W-NW 292 -0,5 C 2,8 km/h (1 Bft)
24.10.2015 09:15 1,4 C 1,5 C 89 % 1019,4 hPa 0,0 mm 0,3 km/h (0 Bft) O-SO 112 -0,2 C 0,0 km/h (0 Bft)
24.10.2015 09:20 1,6 C 1,8 C 89 % 1019,4 hPa 0,0 mm 0,3 km/h (0 Bft) O-NO 67 -0,0 C 0,0 km/h (0 Bft)
24.10.2015 09:25 1,9 C 2,1 C 94 % 1019,4 hPa 0,0 mm 0,0 km/h (0 Bft) O-NO 67 1,0 C 0,0 km/h (0 Bft)
24.10.2015 09:30 2,0 C 2,4 C 89 % 1019,4 hPa 0,0 mm 0,0 km/h (0 Bft) O-SO 112 0,4 C 0,0 km/h (0 Bft)
24.10.2015 09:35 2,2 C 2,7 C 89 % 1019,4 hPa 0,0 mm 0,0 km/h (0 Bft) N-NO 22 0,6 C 0,0 km/h (0 Bft)
24.10.2015 09:40 2,3 C 2,9 C 89 % 1019,4 hPa 0,0 mm 0,0 km/h (0 Bft) N-NO 22 0,7 C 0,0 km/h (0 Bft)
24.10.2015 09:45 2,7 C 3,4 C 89 % 1019,4 hPa 0,0 mm 0,3 km/h (0 Bft) SW 225 1,1 C 0,0 km/h (0 Bft)
24.10.2015 09:50 3,0 C 3,6 C 89 % 1019,8 hPa 0,0 mm 0,3 km/h (0 Bft) SW 225 1,4 C 0,0 km/h (0 Bft)
24.10.2015 09:55 3,2 C 4,0 C 89 % 1019,8 hPa 0,0 mm 0,0 km/h (0 Bft) SW 225 1,6 C 0,0 km/h (0 Bft)
24.10.2015 10:00 3,4 C 4,2 C 89 % 1019,8 hPa 0,0 mm 0,0 km/h (0 Bft) SW 225 1,8 C 0,0 km/h (0 Bft)
24.10.2015 10:05 3,8 C 4,5 C 94 % 1019,8 hPa 0,0 mm 0,0 km/h (0 Bft) SW 225 2,9 C 0,0 km/h (0 Bft)
24.10.2015 10:10 3,9 C 4,6 C 89 % 1019,9 hPa 0,0 mm 0,0 km/h (0 Bft) SW 225 2,3 C 0,0 km/h (0 Bft)
24.10.2015 10:15 4,1 C 4,8 C 89 % 1019,9 hPa 0,0 mm 0,0 km/h (0 Bft) SW 225 2,5 C 0,0 km/h (0 Bft)
24.10.2015 10:20 4,2 C 4,9 C 89 % 1019,9 hPa 0,0 mm 0,0 km/h (0 Bft) SW 225 2,6 C 0,0 km/h (0 Bft)
24.10.2015 10:25 4,6 C 5,2 C 89 % 1019,9 hPa 0,0 mm 0,0 km/h (0 Bft) SW 225 2,9 C 0,0 km/h (0 Bft)
24.10.2015 10:30 4,9 C 5,4 C 89 % 1019,9 hPa 0,0 mm 0,0 km/h (0 Bft) SW 225 3,2 C 0,0 km/h (0 Bft)
24.10.2015 10:35 5,1 C 5,5 C 89 % 1019,9 hPa 0,0 mm 0,0 km/h (0 Bft) SW 225 3,4 C 0,0 km/h (0 Bft)
24.10.2015 10:40 5,4 C 5,7 C 89 % 1019,9 hPa 0,0 mm 0,0 km/h (0 Bft) SW 225 3,7 C 0,0 km/h (0 Bft)
24.10.2015 10:45 5,8 C 6,6 C 89 % 1019,9 hPa 0,0 mm 0,0 km/h (0 Bft) SW 225 4,1 C 0,0 km/h (0 Bft)
24.10.2015 10:50 5,8 C 9,0 C 89 % 1019,7 hPa 0,0 mm 0,0 km/h (0 Bft) SW 225 4,1 C 0,0 km/h (0 Bft)
24.10.2015 10:55 6,1 C 12,1 C 88 % 1019,7 hPa 0,0 mm 0,0 km/h (0 Bft) SW 225 4,3 C 0,0 km/h (0 Bft)
24.10.2015 11:00 6,3 C 13,5 C 88 % 1019,7 hPa 0,0 mm 0,0 km/h (0 Bft) SW 225 4,5 C 0,0 km/h (0 Bft)
24.10.2015 11:05 6,8 C 13,8 C 93 % 1019,7 hPa 0,0 mm 0,0 km/h (0 Bft) O 90 5,7 C 0,0 km/h (0 Bft)
24.10.2015 11:10 7,1 C 13,2 C 92 % 1019,8 hPa 0,0 mm 0,3 km/h (0 Bft) SO 135 5,9 C 2,6 km/h (1 Bft)
24.10.2015 11:15 7,6 C 13,9 C 92 % 1019,8 hPa 0,0 mm 0,8 km/h (0 Bft) O-SO 112 6,4 C 0,0 km/h (0 Bft)
24.10.2015 11:20 7,8 C 14,9 C 92 % 1019,8 hPa 0,0 mm 0,8 km/h (0 Bft) O-SO 112 6,6 C 0,0 km/h (0 Bft)
24.10.2015 11:25 8,2 C 16,0 C 90 % 1019,8 hPa 0,0 mm 0,0 km/h (0 Bft) O 90 6,7 C 0,0 km/h (0 Bft)
24.10.2015 11:30 8,3 C 17,2 C 90 % 1019,6 hPa 0,0 mm 0,0 km/h (0 Bft) O-NO 67 6,8 C 0,0 km/h (0 Bft)
24.10.2015 11:35 8,7 C 18,9 C 89 % 1019,6 hPa 0,0 mm 0,0 km/h (0 Bft) O-SO 112 7,0 C 0,0 km/h (0 Bft)
24.10.2015 11:40 8,9 C 19,8 C 88 % 1019,6 hPa 0,0 mm 0,0 km/h (0 Bft) SO 135 7,0 C 0,0 km/h (0 Bft)
24.10.2015 11:45 9,3 C 21,2 C 88 % 1019,6 hPa 0,0 mm 0,0 km/h (0 Bft) O-SO 112 7,4 C 0,0 km/h (0 Bft)
24.10.2015 11:50 10,2 C 21,9 C 87 % 1019,8 hPa 0,0 mm 0,0 km/h (0 Bft) O-SO 112 8,1 C 0,0 km/h (0 Bft)
24.10.2015 11:55 11,3 C 22,9 C 86 % 1019,8 hPa 0,0 mm 0,0 km/h (0 Bft) O-SO 112 9,0 C 0,0 km/h (0 Bft)
24.10.2015 12:00 11,6 C 23,5 C 85 % 1019,8 hPa 0,0 mm 0,0 km/h (0 Bft) O-SO 112 9,2 C 0,0 km/h (0 Bft)
24.10.2015 12:05 12,3 C 23,8 C 76 % 1019,8 hPa 0,0 mm 0,0 km/h (0 Bft) O-SO 112 8,2 C 0,0 km/h (0 Bft)
24.10.2015 12:10 12,5 C 23,6 C 75 % 1020,0 hPa 0,0 mm 0,0 km/h (0 Bft) O-SO 112 8,2 C 0,0 km/h (0 Bft)
24.10.2015 12:15 13,4 C 22,7 C 72 % 1020,0 hPa 0,0 mm 0,0 km/h (0 Bft) O-SO 112 8,5 C 0,0 km/h (0 Bft)
24.10.2015 12:20 13,9 C 21,8 C 76 % 1020,0 hPa 0,0 mm 0,0 km/h (0 Bft) O-SO 112 9,7 C 0,0 km/h (0 Bft)
24.10.2015 12:25 14,5 C 20,6 C 71 % 1020,0 hPa 0,0 mm 0,0 km/h (0 Bft) O-SO 112 9,3 C 0,0 km/h (0 Bft)
24.10.2015 12:30 14,5 C 19,9 C 68 % 1020,1 hPa 0,0 mm 0,0 km/h (0 Bft) O-SO 112 8,7 C 0,0 km/h (0 Bft)
24.10.2015 12:35 14,8 C 19,2 C 69 % 1020,1 hPa 0,0 mm 0,0 km/h (0 Bft) O-SO 112 9,2 C 0,0 km/h (0 Bft)
24.10.2015 12:40 14,9 C 19,6 C 68 % 1020,1 hPa 0,0 mm 0,3 km/h (0 Bft) O-SO 112 9,0 C 4,9 km/h (1 Bft)
24.10.2015 12:45 15,4 C 20,5 C 66 % 1020,1 hPa 0,0 mm 0,5 km/h (0 Bft) O-SO 112 9,1 C 2,8 km/h (1 Bft)
24.10.2015 12:50 15,3 C 21,3 C 65 % 1020,4 hPa 0,0 mm 0,5 km/h (0 Bft) O-SO 112 8,8 C 0,0 km/h (0 Bft)
24.10.2015 12:55 15,0 C 22,7 C 65 % 1020,4 hPa 0,0 mm 0,3 km/h (0 Bft) O-SO 112 8,5 C 0,0 km/h (0 Bft)
24.10.2015 13:00 15,0 C 23,1 C 65 % 1020,4 hPa 0,0 mm 0,0 km/h (0 Bft) O-SO 112 8,5 C 0,0 km/h (0 Bft)
24.10.2015 13:05 14,7 C 22,9 C 65 % 1020,4 hPa 0,0 mm 0,5 km/h (0 Bft) O-SO 112 8,2 C 0,0 km/h (0 Bft)
24.10.2015 13:10 14,7 C 23,6 C 64 % 1020,4 hPa 0,0 mm 0,5 km/h (0 Bft) O-SO 112 8,0 C 0,0 km/h (0 Bft)
24.10.2015 13:15 14,9 C 24,2 C 63 % 1020,4 hPa 0,0 mm 0,5 km/h (0 Bft) O-SO 112 7,9 C 3,9 km/h (1 Bft)
24.10.2015 13:20 15,0 C 24,0 C 61 % 1020,4 hPa 0,0 mm 0,8 km/h (0 Bft) O-SO 112 7,5 C 0,0 km/h (0 Bft)
24.10.2015 13:25 15,0 C 24,4 C 59 % 1020,4 hPa 0,0 mm 0,8 km/h (0 Bft) O-SO 112 7,1 C 0,0 km/h (0 Bft)
24.10.2015 13:30 15,4 C 24,6 C 59 % 1020,4 hPa 0,0 mm 0,8 km/h (0 Bft) O-SO 112 7,4 C 0,0 km/h (0 Bft)
24.10.2015 13:35 16,2 C 24,6 C 58 % 1020,4 hPa 0,0 mm 0,8 km/h (0 Bft) O-SO 112 7,9 C 2,8 km/h (1 Bft)
24.10.2015 13:40 16,7 C 24,7 C 56 % 1020,4 hPa 0,0 mm 0,8 km/h (0 Bft) O-SO 112 7,9 C 0,0 km/h (0 Bft)
24.10.2015 13:45 17,0 C 25,0 C 54 % 1020,4 hPa 0,0 mm 1,0 km/h (0 Bft) O-SO 112 7,6 C 0,0 km/h (0 Bft)
24.10.2015 13:50 16,6 C 25,2 C 53 % 1020,3 hPa 0,0 mm 1,0 km/h (0 Bft) O-SO 112 7,0 C 3,4 km/h (1 Bft)
24.10.2015 13:55 17,0 C 25,4 C 53 % 1020,3 hPa 0,0 mm 0,8 km/h (0 Bft) O-SO 112 7,4 C 0,0 km/h (0 Bft)
24.10.2015 14:00 17,6 C 25,6 C 53 % 1020,3 hPa 0,0 mm 0,5 km/h (0 Bft) O-SO 112 7,9 C 0,0 km/h (0 Bft)
24.10.2015 14:05 17,9 C 25,9 C 50 % 1020,3 hPa 0,0 mm 0,3 km/h (0 Bft) O-SO 112 7,3 C 2,8 km/h (1 Bft)
24.10.2015 14:10 17,8 C 25,6 C 51 % 1020,4 hPa 0,0 mm 0,3 km/h (0 Bft) O-SO 112 7,5 C 0,0 km/h (0 Bft)
24.10.2015 14:15 18,0 C 25,2 C 53 % 1020,4 hPa 0,0 mm 0,8 km/h (0 Bft) O-SO 112 8,3 C 3,1 km/h (1 Bft)
24.10.2015 14:20 18,7 C 25,0 C 50 % 1020,4 hPa 0,0 mm 1,0 km/h (0 Bft) O-SO 112 8,1 C 0,0 km/h (0 Bft)
24.10.2015 14:24 18,9 C 25,7 C 51 % 1020,4 hPa 0,0 mm 0,8 km/h (0 Bft) O-SO 112 8,5 C 0,0 km/h (0 Bft)
24.10.2015 14:26 18,9 C 25,7 C 51 % 1020,4 hPa 0,0 mm 0,8 km/h (0 Bft) O-SO 112 8,5 C 0,0 km/h (0 Bft)
24.10.2015 14:30 19,1 C 25,9 C 51 % 1020,9 hPa 0,0 mm 0,3 km/h (0 Bft) O-SO 112 8,7 C 0,0 km/h (0 Bft)
24.10.2015 14:35 19,0 C 25,9 C 50 % 1020,9 hPa 0,0 mm 0,8 km/h (0 Bft) O-SO 112 8,3 C 0,0 km/h (0 Bft)
24.10.2015 14:40 18,9 C 25,9 C 50 % 1020,9 hPa 0,0 mm 0,8 km/h (0 Bft) O 90 8,2 C 5,4 km/h (1 Bft)
24.10.2015 14:45 19,0 C 25,4 C 50 % 1020,9 hPa 0,0 mm 0,3 km/h (0 Bft) SO 135 8,3 C 0,0 km/h (0 Bft)
24.10.2015 14:50 19,0 C 25,6 C 51 % 1020,3 hPa 0,0 mm 0,3 km/h (0 Bft) O-SO 112 8,6 C 0,0 km/h (0 Bft)
24.10.2015 14:55 18,6 C 25,4 C 51 % 1020,3 hPa 0,0 mm 0,3 km/h (0 Bft) SO 135 8,3 C 0,0 km/h (0 Bft)
24.10.2015 15:00 18,6 C 25,0 C 52 % 1020,3 hPa 0,0 mm 0,3 km/h (0 Bft) SO 135 8,5 C 0,0 km/h (0 Bft)
24.10.2015 15:05 18,4 C 24,0 C 51 % 1020,3 hPa 0,0 mm 0,3 km/h (0 Bft) SO 135 8,1 C 0,0 km/h (0 Bft)
24.10.2015 15:10 18,0 C 23,4 C 51 % 1020,1 hPa 0,0 mm 0,3 km/h (0 Bft) O-SO 112 7,7 C 3,4 km/h (1 Bft)
24.10.2015 15:15 17,7 C 22,5 C 53 % 1020,1 hPa 0,0 mm 0,8 km/h (0 Bft) O 90 8,0 C 0,0 km/h (0 Bft)
24.10.2015 15:20 17,7 C 22,3 C 52 % 1020,1 hPa 0,0 mm 0,8 km/h (0 Bft) O 90 7,7 C 0,0 km/h (0 Bft)
24.10.2015 15:25 17,8 C 22,3 C 53 % 1020,1 hPa 0,0 mm 0,3 km/h (0 Bft) O 90 8,1 C 3,1 km/h (1 Bft)
24.10.2015 15:30 17,5 C 22,0 C 53 % 1020,0 hPa 0,0 mm 0,3 km/h (0 Bft) O 90 7,8 C 0,0 km/h (0 Bft)
24.10.2015 15:35 17,5 C 21,8 C 50 % 1020,0 hPa 0,0 mm 0,3 km/h (0 Bft) O 90 7,0 C 0,0 km/h (0 Bft)
24.10.2015 15:40 17,5 C 22,0 C 50 % 1020,0 hPa 0,0 mm 0,3 km/h (0 Bft) O 90 7,0 C 0,0 km/h (0 Bft)
24.10.2015 15:45 17,5 C 22,2 C 52 % 1020,0 hPa 0,0 mm 0,8 km/h (0 Bft) O 90 7,5 C 0,0 km/h (0 Bft)
24.10.2015 15:50 17,4 C 22,0 C 53 % 1019,9 hPa 0,0 mm 0,5 km/h (0 Bft) O 90 7,7 C 0,0 km/h (0 Bft)
24.10.2015 15:55 17,1 C 21,4 C 53 % 1019,9 hPa 0,0 mm 0,8 km/h (0 Bft) O 90 7,4 C 5,4 km/h (1 Bft)
24.10.2015 16:00 16,9 C 20,8 C 53 % 1019,9 hPa 0,0 mm 1,0 km/h (0 Bft) O 90 7,3 C 0,0 km/h (0 Bft)
24.10.2015 16:05 16,6 C 20,9 C 54 % 1019,9 hPa 0,0 mm 0,5 km/h (0 Bft) O 90 7,3 C 0,0 km/h (0 Bft)
24.10.2015 16:10 16,6 C 21,3 C 55 % 1019,9 hPa 0,0 mm 0,0 km/h (0 Bft) O 90 7,5 C 0,0 km/h (0 Bft)
24.10.2015 16:15 16,7 C 21,5 C 56 % 1019,9 hPa 0,0 mm 0,3 km/h (0 Bft) O 90 7,9 C 3,6 km/h (1 Bft)
24.10.2015 16:20 16,6 C 21,8 C 56 % 1019,9 hPa 0,0 mm 0,3 km/h (0 Bft) O 90 7,8 C 0,0 km/h (0 Bft)
24.10.2015 16:25 16,3 C 21,3 C 58 % 1019,9 hPa 0,0 mm 0,5 km/h (0 Bft) O 90 8,0 C 0,0 km/h (0 Bft)
24.10.2015 16:30 16,1 C 20,1 C 58 % 1019,9 hPa 0,0 mm 0,3 km/h (0 Bft) O 90 7,8 C 0,0 km/h (0 Bft)
24.10.2015 16:35 15,8 C 18,6 C 59 % 1019,9 hPa 0,0 mm 0,0 km/h (0 Bft) O 90 7,8 C 0,0 km/h (0 Bft)
24.10.2015 16:40 15,7 C 17,9 C 58 % 1019,9 hPa 0,0 mm 0,0 km/h (0 Bft) O 90 7,5 C 0,0 km/h (0 Bft)
24.10.2015 16:45 15,4 C 17,0 C 59 % 1019,9 hPa 0,0 mm 0,3 km/h (0 Bft) O 90 7,4 C 0,0 km/h (0 Bft)
24.10.2015 16:50 15,2 C 16,6 C 59 % 1019,6 hPa 0,0 mm 1,3 km/h (1 Bft) O 90 7,2 C 4,1 km/h (1 Bft)
24.10.2015 16:55 15,0 C 16,0 C 63 % 1019,6 hPa 0,0 mm 3,4 km/h (1 Bft) O 90 8,0 C 3,9 km/h (1 Bft)
24.10.2015 17:00 14,9 C 15,8 C 65 % 1019,6 hPa 0,0 mm 4,1 km/h (1 Bft) O 90 8,4 C 3,4 km/h (1 Bft)
24.10.2015 17:05 14,7 C 15,6 C 65 % 1019,6 hPa 0,0 mm 2,8 km/h (1 Bft) S-SO 157 8,2 C 0,0 km/h (0 Bft)
24.10.2015 17:10 14,5 C 15,6 C 65 % 1019,5 hPa 0,0 mm 1,8 km/h (1 Bft) S-SO 157 8,0 C 4,4 km/h (1 Bft)
24.10.2015 17:15 14,0 C 15,2 C 66 % 1019,5 hPa 0,0 mm 1,0 km/h (0 Bft) S-SO 157 7,7 C 2,6 km/h (1 Bft)
24.10.2015 17:20 13,8 C 15,0 C 66 % 1019,5 hPa 0,0 mm 2,1 km/h (1 Bft) S-SO 157 7,6 C 3,4 km/h (1 Bft)
24.10.2015 17:25 13,5 C 14,7 C 66 % 1019,5 hPa 0,0 mm 1,8 km/h (1 Bft) SO 135 7,3 C 2,8 km/h (1 Bft)
24.10.2015 17:30 13,3 C 14,4 C 66 % 1019,1 hPa 0,0 mm 1,3 km/h (1 Bft) SO 135 7,1 C 0,0 km/h (0 Bft)
24.10.2015 17:35 12,7 C 13,7 C 68 % 1019,1 hPa 0,0 mm 1,3 km/h (1 Bft) S 180 6,9 C 0,0 km/h (0 Bft)
24.10.2015 17:40 12,3 C 13,3 C 69 % 1019,1 hPa 0,0 mm 1,3 km/h (1 Bft) S 180 6,8 C 0,0 km/h (0 Bft)
24.10.2015 17:45 12,3 C 12,6 C 71 % 1019,1 hPa 0,0 mm 0,0 km/h (0 Bft) S-SW 202 7,2 C 0,0 km/h (0 Bft)
24.10.2015 17:50 11,9 C 12,4 C 72 % 1019,1 hPa 0,0 mm 0,0 km/h (0 Bft) S 180 7,0 C 0,0 km/h (0 Bft)
24.10.2015 17:55 11,4 C 11,9 C 72 % 1019,1 hPa 0,0 mm 0,0 km/h (0 Bft) S 180 6,5 C 0,0 km/h (0 Bft)
24.10.2015 18:00 10,8 C 11,5 C 72 % 1019,1 hPa 0,0 mm 0,0 km/h (0 Bft) S 180 6,0 C 0,0 km/h (0 Bft)
24.10.2015 18:05 11,0 C 10,9 C 73 % 1019,1 hPa 0,0 mm 0,0 km/h (0 Bft) S 180 6,4 C 0,0 km/h (0 Bft)
24.10.2015 18:10 10,9 C 10,9 C 73 % 1019,2 hPa 0,0 mm 0,0 km/h (0 Bft) S 180 6,3 C 0,0 km/h (0 Bft)
24.10.2015 18:15 11,0 C 10,9 C 73 % 1019,2 hPa 0,0 mm 0,0 km/h (0 Bft) S 180 6,4 C 0,0 km/h (0 Bft)
24.10.2015 18:20 11,1 C 10,9 C 73 % 1019,2 hPa 0,0 mm 0,0 km/h (0 Bft) S 180 6,4 C 0,0 km/h (0 Bft)
24.10.2015 18:25 11,0 C 10,7 C 73 % 1019,2 hPa 0,0 mm 0,0 km/h (0 Bft) S 180 6,4 C 0,0 km/h (0 Bft)
24.10.2015 18:30 10,7 C 10,4 C 73 % 1019,3 hPa 0,0 mm 0,0 km/h (0 Bft) S 180 6,1 C 0,0 km/h (0 Bft)
24.10.2015 18:35 10,1 C 9,9 C 72 % 1019,3 hPa 0,0 mm 0,0 km/h (0 Bft) S 180 5,3 C 0,0 km/h (0 Bft)
24.10.2015 18:40 9,9 C 9,7 C 73 % 1019,3 hPa 0,0 mm 0,0 km/h (0 Bft) S 180 5,3 C 0,0 km/h (0 Bft)
24.10.2015 18:45 9,4 C 9,2 C 73 % 1019,3 hPa 0,0 mm 0,0 km/h (0 Bft) SW 225 4,8 C 0,0 km/h (0 Bft)
24.10.2015 18:50 9,6 C 9,3 C 74 % 1019,1 hPa 0,0 mm 0,0 km/h (0 Bft) S 180 5,2 C 0,0 km/h (0 Bft)
24.10.2015 18:55 9,1 C 8,9 C 74 % 1019,1 hPa 0,0 mm 0,0 km/h (0 Bft) S 180 4,7 C 0,0 km/h (0 Bft)
24.10.2015 19:00 8,8 C 8,7 C 74 % 1019,1 hPa 0,0 mm 0,0 km/h (0 Bft) S 180 4,4 C 0,0 km/h (0 Bft)
24.10.2015 19:05 8,7 C 8,5 C 75 % 1019,1 hPa 0,0 mm 0,0 km/h (0 Bft) N-NW 337 4,5 C 0,0 km/h (0 Bft)
24.10.2015 19:10 9,5 C 9,1 C 76 % 1019,2 hPa 0,0 mm 0,0 km/h (0 Bft) O-NO 67 5,5 C 0,0 km/h (0 Bft)
24.10.2015 19:15 9,1 C 8,9 C 75 % 1019,2 hPa 0,0 mm 0,0 km/h (0 Bft) NO 45 4,9 C 0,0 km/h (0 Bft)
24.10.2015 19:20 8,8 C 8,6 C 75 % 1019,2 hPa 0,0 mm 0,0 km/h (0 Bft) NO 45 4,6 C 0,0 km/h (0 Bft)
24.10.2015 19:25 8,3 C 8,2 C 75 % 1019,2 hPa 0,0 mm 0,0 km/h (0 Bft) O-NO 67 4,1 C 0,0 km/h (0 Bft)
24.10.2015 19:30 9,3 C 8,8 C 76 % 1019,4 hPa 0,0 mm 0,3 km/h (0 Bft) O 90 5,3 C 0,0 km/h (0 Bft)
24.10.2015 19:35 8,7 C 8,5 C 75 % 1019,4 hPa 0,0 mm 0,3 km/h (0 Bft) O-NO 67 4,5 C 0,0 km/h (0 Bft)
24.10.2015 19:40 8,6 C 8,4 C 75 % 1019,4 hPa 0,0 mm 0,0 km/h (0 Bft) O 90 4,4 C 0,0 km/h (0 Bft)
24.10.2015 19:45 8,5 C 8,3 C 75 % 1019,4 hPa 0,0 mm 0,0 km/h (0 Bft) O-SO 112 4,3 C 0,0 km/h (0 Bft)
24.10.2015 19:50 8,1 C 8,0 C 75 % 1019,6 hPa 0,0 mm 0,0 km/h (0 Bft) O-NO 67 3,9 C 0,0 km/h (0 Bft)
24.10.2015 19:55 8,0 C 7,9 C 76 % 1019,6 hPa 0,0 mm 0,0 km/h (0 Bft) SO 135 4,0 C 0,0 km/h (0 Bft)
24.10.2015 20:00 8,1 C 7,9 C 76 % 1019,6 hPa 0,0 mm 0,0 km/h (0 Bft) NO 45 4,1 C 0,0 km/h (0 Bft)
24.10.2015 20:05 8,1 C 7,9 C 76 % 1019,6 hPa 0,0 mm 0,0 km/h (0 Bft) SO 135 4,1 C 0,0 km/h (0 Bft)
24.10.2015 20:10 8,2 C 8,0 C 76 % 1019,5 hPa 0,0 mm 0,0 km/h (0 Bft) O-NO 67 4,2 C 0,0 km/h (0 Bft)
24.10.2015 20:15 8,0 C 7,9 C 76 % 1019,5 hPa 0,0 mm 0,0 km/h (0 Bft) O-NO 67 4,0 C 0,0 km/h (0 Bft)
24.10.2015 20:20 7,9 C 7,8 C 76 % 1019,5 hPa 0,0 mm 0,0 km/h (0 Bft) O-NO 67 3,9 C 0,0 km/h (0 Bft)
24.10.2015 20:25 7,9 C 7,8 C 76 % 1019,5 hPa 0,0 mm 0,0 km/h (0 Bft) O 90 3,9 C 0,0 km/h (0 Bft)
24.10.2015 20:27 7,9 C 7,8 C 76 % 1019,5 hPa 0,0 mm 0,0 km/h (0 Bft) O 90 3,9 C 0,0 km/h (0 Bft)
24.10.2015 20:30 7,8 C 7,7 C 76 % 1019,4 hPa 0,0 mm 0,0 km/h (0 Bft) O-NO 67 3,8 C 0,0 km/h (0 Bft)
24.10.2015 20:35 7,9 C 7,8 C 77 % 1019,4 hPa 0,0 mm 0,0 km/h (0 Bft) O-NO 67 4,1 C 0,0 km/h (0 Bft)
24.10.2015 20:40 7,9 C 7,7 C 77 % 1019,4 hPa 0,0 mm 0,0 km/h (0 Bft) O-NO 67 4,1 C 0,0 km/h (0 Bft)
24.10.2015 20:45 7,7 C 7,6 C 76 % 1019,4 hPa 0,0 mm 0,0 km/h (0 Bft) O 90 3,7 C 0,0 km/h (0 Bft)
24.10.2015 20:50 7,7 C 7,6 C 76 % 1019,6 hPa 0,0 mm 0,0 km/h (0 Bft) O-NO 67 3,7 C 0,0 km/h (0 Bft)
24.10.2015 20:55 7,3 C 7,2 C 76 % 1019,6 hPa 0,0 mm 0,0 km/h (0 Bft) O-NO 67 3,4 C 0,0 km/h (0 Bft)
24.10.2015 21:00 7,5 C 7,3 C 76 % 1019,6 hPa 0,0 mm 0,0 km/h (0 Bft) O-SO 112 3,5 C 0,0 km/h (0 Bft)
24.10.2015 21:05 7,5 C 7,4 C 76 % 1019,6 hPa 0,0 mm 0,0 km/h (0 Bft) O-NO 67 3,5 C 0,0 km/h (0 Bft)
24.10.2015 21:10 7,5 C 7,4 C 77 % 1019,6 hPa 0,0 mm 0,0 km/h (0 Bft) N-NO 22 3,7 C 0,0 km/h (0 Bft)
24.10.2015 21:15 7,6 C 7,5 C 76 % 1019,6 hPa 0,0 mm 0,0 km/h (0 Bft) NO 45 3,6 C 0,0 km/h (0 Bft)
24.10.2015 21:20 7,5 C 7,4 C 76 % 1019,6 hPa 0,0 mm 0,0 km/h (0 Bft) O-SO 112 3,5 C 0,0 km/h (0 Bft)
24.10.2015 21:25 7,5 C 7,4 C 76 % 1019,6 hPa 0,0 mm 0,0 km/h (0 Bft) S-SW 202 3,5 C 0,0 km/h (0 Bft)
24.10.2015 21:30 7,6 C 7,5 C 76 % 1019,7 hPa 0,0 mm 0,0 km/h (0 Bft) S-SW 202 3,6 C 0,0 km/h (0 Bft)
24.10.2015 21:35 7,3 C 7,2 C 76 % 1019,7 hPa 0,0 mm 0,0 km/h (0 Bft) O-SO 112 3,4 C 0,0 km/h (0 Bft)
24.10.2015 21:40 7,2 C 7,1 C 76 % 1019,7 hPa 0,0 mm 0,0 km/h (0 Bft) NO 45 3,3 C 0,0 km/h (0 Bft)
24.10.2015 21:45 7,1 C 7,0 C 76 % 1019,7 hPa 0,0 mm 0,0 km/h (0 Bft) NO 45 3,2 C 0,0 km/h (0 Bft)
24.10.2015 21:50 6,9 C 6,9 C 76 % 1019,5 hPa 0,0 mm 0,0 km/h (0 Bft) N-NO 22 3,0 C 0,0 km/h (0 Bft)
24.10.2015 21:55 7,0 C 6,9 C 76 % 1019,5 hPa 0,0 mm 0,0 km/h (0 Bft) O-NO 67 3,1 C 0,0 km/h (0 Bft)
24.10.2015 22:00 6,8 C 6,7 C 77 % 1019,5 hPa 0,0 mm 0,0 km/h (0 Bft) N-NO 22 3,1 C 0,0 km/h (0 Bft)
24.10.2015 22:05 6,8 C 6,7 C 77 % 1019,5 hPa 0,0 mm 0,0 km/h (0 Bft) NO 45 3,1 C 0,0 km/h (0 Bft)
24.10.2015 22:10 6,6 C 6,5 C 77 % 1020,1 hPa 0,0 mm 0,0 km/h (0 Bft) NO 45 2,9 C 0,0 km/h (0 Bft)
24.10.2015 22:15 6,7 C 6,6 C 77 % 1020,1 hPa 0,0 mm 0,5 km/h (0 Bft) W-SW 247 3,0 C 5,2 km/h (1 Bft)
24.10.2015 22:20 6,9 C 6,7 C 77 % 1020,1 hPa 0,0 mm 0,5 km/h (0 Bft) W 270 3,2 C 0,0 km/h (0 Bft)
24.10.2015 22:25 6,8 C 6,7 C 78 % 1020,1 hPa 0,0 mm 0,5 km/h (0 Bft) NW 315 3,2 C 0,0 km/h (0 Bft)
24.10.2015 22:30 6,9 C 6,7 C 78 % 1019,9 hPa 0,0 mm 0,0 km/h (0 Bft) NW 315 3,3 C 0,0 km/h (0 Bft)
24.10.2015 22:35 6,6 C 6,5 C 77 % 1019,9 hPa 0,0 mm 0,0 km/h (0 Bft) NW 315 2,9 C 0,0 km/h (0 Bft)
24.10.2015 22:40 6,7 C 6,5 C 78 % 1019,9 hPa 0,0 mm 0,0 km/h (0 Bft) NW 315 3,1 C 0,0 km/h (0 Bft)
24.10.2015 22:45 6,7 C 6,5 C 78 % 1019,9 hPa 0,0 mm 0,0 km/h (0 Bft) NW 315 3,1 C 0,0 km/h (0 Bft)
24.10.2015 22:50 6,4 C 6,3 C 77 % 1020,1 hPa 0,0 mm 0,0 km/h (0 Bft) NW 315 2,7 C 0,0 km/h (0 Bft)
24.10.2015 22:55 6,4 C 6,3 C 77 % 1020,1 hPa 0,0 mm 0,0 km/h (0 Bft) O-NO 67 2,7 C 0,0 km/h (0 Bft)
24.10.2015 23:00 6,6 C 6,4 C 78 % 1020,1 hPa 0,0 mm 0,0 km/h (0 Bft) N-NW 337 3,0 C 0,0 km/h (0 Bft)
24.10.2015 23:05 6,4 C 6,3 C 77 % 1020,1 hPa 0,0 mm 0,0 km/h (0 Bft) N-NW 337 2,7 C 0,0 km/h (0 Bft)
24.10.2015 23:10 6,4 C 6,3 C 77 % 1020,1 hPa 0,0 mm 0,3 km/h (0 Bft) NO 45 2,7 C 0,0 km/h (0 Bft)
24.10.2015 23:15 6,5 C 6,3 C 77 % 1020,1 hPa 0,0 mm 0,3 km/h (0 Bft) O 90 2,8 C 0,0 km/h (0 Bft)
24.10.2015 23:20 6,4 C 6,2 C 77 % 1020,1 hPa 0,0 mm 0,0 km/h (0 Bft) O-NO 67 2,7 C 0,0 km/h (0 Bft)
24.10.2015 23:25 6,4 C 6,2 C 77 % 1020,1 hPa 0,0 mm 0,0 km/h (0 Bft) SO 135 2,7 C 0,0 km/h (0 Bft)
24.10.2015 23:30 6,3 C 6,1 C 77 % 1020,2 hPa 0,0 mm 0,0 km/h (0 Bft) SO 135 2,6 C 0,0 km/h (0 Bft)
24.10.2015 23:35 6,3 C 6,1 C 77 % 1020,2 hPa 0,0 mm 0,0 km/h (0 Bft) O-SO 112 2,6 C 0,0 km/h (0 Bft)
24.10.2015 23:40 6,5 C 6,3 C 77 % 1020,2 hPa 0,0 mm 0,0 km/h (0 Bft) O-SO 112 2,8 C 0,0 km/h (0 Bft)
24.10.2015 23:45 6,6 C 6,3 C 77 % 1020,2 hPa 0,0 mm 0,0 km/h (0 Bft) O-NO 67 2,9 C 0,0 km/h (0 Bft)
24.10.2015 23:50 6,3 C 6,1 C 77 % 1020,4 hPa 0,0 mm 0,0 km/h (0 Bft) O-NO 67 2,6 C 0,0 km/h (0 Bft)
24.10.2015 23:55 6,7 C 6,5 C 77 % 1020,4 hPa 0,0 mm 0,5 km/h (0 Bft) N-NW 337 3,0 C 5,2 km/h (1 Bft)
_ Min-Zeit 08:15 08:15 15:40 19:05 - 23:50 - - 08:25 23:50
Minimum _ -0,5 C -0,8 C 50 % 1019,1 hPa - 0,0 km/h (0 Bft) - - -2,0 C 0,0 km/h (0 Bft)
_ Max-Zeit 14:30 14:40 10:05 14:45 23:55 02:00 - - 12:20 02:10
Maximum _ 19,1 C 25,9 C 94 % 1020,9 hPa 0,0 mm 9,6 km/h
SW (2 Bft)
- - 9,7 C 16,1 km/h
S-SW (3 Bft)
Durchschnitt _ 7,8 C 9,5 C 79 % 1019,9 hPa #0,0 mm 0,9 km/h (0 Bft) SW - 4,1 C 1,3 km/h (1 Bft)